Weather Roundup
Issued by NWS Chicago, IL

Home | Current Version | Previous Version | Text Only | Print | Product List | Glossary Off
Versions: 1 2 3 4 5 6 7 8 9 10 11 12 13 14 15 16 17 18 19 20 21 22 23 24 25 26 27 28 29 30 31 32 33 34 35 36 37 38 39 40 41 42 43 44 45 46 47 48 49 50

000
NZUS59 KLOT 241208
HRRLOT

CHICAGO AREA WEATHER ROUNDUP
NATIONAL WEATHER SERVICE CHICAGO/ROMEOVILLE IL
700 AM CDT SUN MAY 24 2015

NOTE: "FAIR" INDICATES FEW OR NO CLOUDS BELOW 12,000 FEET WITH NO
SIGNIFICANT WEATHER AND/OR OBSTRUCTIONS TO VISIBILITY.

* THESE STATIONS ARE NOT UNDER NWS QUALITY CONTROL. THEY ALSO MAY NOT
  REPORT WEATHER SUCH AS PRECIPITATION OR FOG.

ILZ005-006-012>014-019>023-241300-
NORTHEAST ILLINOIS

CITY           SKY/WX    TMP DP  RH WIND       PRES   REMARKS
OHARE          CLOUDY    63  50  62 VRB3      30.18S
6HR MIN TEMP:  59; 6HR MAX TEMP:  65; 6HR PCP: TRACE;

MIDWAY         LGT RAIN  64  51  62 S8        30.19S
6HR MIN TEMP:  64; 6HR MAX TEMP:  69; 6HR PCP:  0.01;

AURORA         LGT RAIN  60  54  80 E6        30.18F
6HR MIN TEMP:  59; 6HR MAX TEMP:  63; 6HR PCP:  0.01;

LANSING*       CLOUDY    62  49  63 CALM      30.19F
JOLIET*        CLOUDY    60  57  89 CALM      30.17F
WAUKEGAN       CLOUDY    59  51  75 CALM      30.17F
6HR MIN TEMP:  49; 6HR MAX TEMP:  59;

DUPAGE AIRPORT CLOUDY    61  54  77 SW7       30.19F
6HR MIN TEMP:  58; 6HR MAX TEMP:  62; 6HR PCP:  0.01;

WHEELING       LGT RAIN  62  52  69 S5        30.20S
6HR MIN TEMP:  56; 6HR MAX TEMP:  63; 6HR PCP: TRACE;

KANKAKEE*      CLOUDY    62  53  70 E5        30.19S
MORRIS*        CLOUDY    60  55  81 CALM      30.14S
LEWIS AIRPORT* CLOUDY    58  55  88 NE7       30.18F
NORTHERLY IS     N/A     58  50  75 S2          N/A
$$

WIZ051-052-058>065-066-070>072-241300-
SOUTHEAST WISCONSIN

CITY           SKY/WX    TMP DP  RH WIND       PRES   REMARKS
MILWAUKEE      CLOUDY    60  48  64 SE3       30.18S
6HR MIN TEMP:  55; 6HR MAX TEMP:  60;

KENOSHA*       CLOUDY    60  53  77 CALM      30.18S
RACINE*        CLOUDY    59  47  64 CALM      30.20S
BURLINGTON     CLOUDY    53  50  90 CALM      30.17S
WAUKESHA       MOSUNNY   55  48  76 S6        30.19S
WEST BEND      CLOUDY    54  48  82 CALM      30.18R
$$

INZ001>003-010>013-019-020-241300-
NORTHWEST INDIANA

CITY           SKY/WX    TMP DP  RH WIND       PRES   REMARKS
GARY*          PTSUNNY   64  48  55 SE7       30.20S
MICHIGAN CITY* NOT AVBL
RENSSELAER*    NOT AVBL
VALPARAISO     PTSUNNY   60  51  72 E5        30.21F
$$

LMZ740>746-241300-
SOUTHERN LAKE MICHIGAN

STATION/POSITION TIME  SKY/WX   TEMP WIND        PRES    VSBY
                                AIR  DIR/SP/G
                 (UTC)          (F)  (DEG/KT/KT) (MB)    (MI)
HARRISON CRIB    1100            63  130/  9/ 12   N/A
BURNHAM HARBOR   1200            59  140/  3       N/A
CALUMET HARBOR   1100            62  140/  2/  2   N/A
BURNS HARBOR     1100            66  150/  6/ 10 1023.0F
MICHIGAN CITY    1100            64  120/  8/ 10   N/A
$$

ABBREVIATIONS USED IN REMARKS
   TC - TEMPERATURE IN CELSIUS
  WCI - WIND CHILL INDEX
   HX - HEAT INDEX
  VSB - VISIBILITY
$$


USA.gov is the U.S. government's official web portal to all federal, state and local government web resources and services.